Jackpot

Texas Poker Multi Jackpot System

Kini Telah hadir Jackpot SUPER ROYAL FLUSH

Kini Telah hadir Jackpot 2000 (khusus table VIP keatas).

Ikutilah global jackpot yang tersedia di system kami, dengan system jackpot terbaru dan pertama di indonesia, anda dapat membeli jackpot dengan harga 100 rupiah saja dan menangkan hadiahnya hingga puluhan juta rupiah.

Jackpot bukanlah suatu keharusan untuk dibeli, namun kami memberikan suatu fitur tambahan untuk member tercinta dari www.ikanbuntal.com.

Terdapat tiga pilihan harga jackpot yang bisa anda beli yaitu :100,500,1000 dan 2000(khusus table VIP Keatas) rupiah.

Hadiah dari Multi jackpot system www.ikanbuntal.com

  1. full house x 10 harga jackpot yang anda beli.
      (contoh:anda membeli 1000 maka:1000 X10 = 10.000)
  2. four of kind x 250 harga jackpot yang anda beli
      (contoh:anda membeli 1000 maka:1000 X250 = 250.000)
  3. Straight flush x 1200
      (contoh:anda membeli 1000 maka:1000 X1200 = 1.200.000)
  4. Royal flush x 10000 harga jackpot yang anda beli
      (contoh:anda membeli 1000 maka:1000 X10000 = 10.000.000)
  5. SUPER ROYAL FLUSH x 30000 harga jackpot yang anda beli
      (contoh:anda membeli 1000 maka:1000 X30000 = 30.000.000)

Kondisi kartu

  1. full house adalah kondisi kartu dimana kartu anda dan kartu tengah dengan total 7 kartu bisa mendapatkan nilai 5 kartu dengan kombinasi 1 tris(three of kind) dan 1 pair, contoh 3 kartu 10 dan 2 kartu 5
  2. Four of kind adalah kondisi kartu dimana kartu anda dan kartu tengah dengan total 7 kartu bisa mendapatkan nilai 5 kartu dengan kombinasi 4 kartu yang sama jumlah dan 1 kartu apapun juga contoh anda mendapatkan 4 buah kartu angka 3 dan 1 kartu apapun.
  3. Staright flush adalah kondisi kartu dimana kartu anda dan kartu tengah dengan total 7 kartu bisa mendapatkan nilai 5 kartu dengan kombinasi seri / staright dengan kembang yang sama contoh : urutan kartu dari angka 5, 6, 7, 8 , 9 10 dengan kembang yg sama misalnya as hati
  4. Royal flush adalah kondisi kartu dimana kartu anda dan kartu tengah dengan total 7 kartu bisa mendapatkan nilai 5 kartu dengan kombinasi seri / staright dengan kembang yang sama tetapi kartu tersebut haruslah dimulai dari 10. contoh 10, Queen, Jack, King dan aces dengan kembang yang sama
  5. Super Royal flush adalah kondisi kartu dimana Kedua kartu anda digabung dengan 3 kartu pertama meja haruslah royal flush. contoh kartu anda 10,Queen kembang sama dan 3 kartu pertama meja adalah Jack, King dan aces dengan kembang yang sama

Demikian adalah penjelasan dari Multi Jackpot www.ikanbuntal.com terima kasih dan selamat bermain salam hoki dari kami

Texas Poker Jackpot Winner

TOP SUPER ROYAL FLUSH
No.TanggalNamaPriceWin
119/08 18:08TORES4DSuper Royal flush15,000,000
219/08 15:20HERU447Super Royal flush6,000,000
319/08 11:52E049306FSuper Royal flush3,000,000
419/08 02:49RD1515Super Royal flush3,000,000
519/08 01:39BIGBRO303Super Royal flush6,000,000
TOP ROYAL FLUSH
No.TanggalNamaPriceWin
119/08 18:27BO5L_LRoyal flush1,000,000
219/08 18:08JEARA13Royal flush2,000,000
319/08 18:03DAMPETRoyal flush2,000,000
419/08 17:51EC2CCB8CRoyal flush20,000,000
519/08 17:21D32ZD6LJQXRoyal flush2,000,000
TOP STRAIGHT FLUSH
No.TanggalNamaPriceWin
119/08 18:34TANTE_PUKIStraight Flush1,200,000
219/08 18:30CLASMILD19Straight Flush120,000
319/08 18:27MOMOPOPOStraight Flush240,000
419/08 18:24CUMAQQStraight Flush120,000
519/08 18:20BINK13Straight Flush600,000
LATEST JACKPOT
No.TanggalNamaPriceWin
119/08 18:35SANEPO7Full House5,000
219/08 18:35SOWI02Full House5,000
319/08 18:35HOKIHOKIAFull House10,000
419/08 18:35VI33Full House1,000
519/08 18:35KIMEX00Full House10,000
619/08 18:35CEPOK205Full House10,000
719/08 18:35HYBF5IC85XFull House5,000
819/08 18:35ULLAH77Full House10,000
919/08 18:35QIDIQ11Full House5,000
1019/08 18:35DUTAGUEFull House500
1119/08 18:35REMA44Full House1,000
1219/08 18:35KRSPEW00MXFull House5,000
1319/08 18:35JAYUZZZ0Full House2,000
1419/08 18:35BUSEEET8Full House2,000
1519/08 18:35AJKSDLDFull House2,000
1619/08 18:35HEROINE89Full House2,000
1719/08 18:35E323DDA7Full House1,000
1819/08 18:35MICIN2Full House2,000
1919/08 18:35LMAN90Full House2,000
2019/08 18:35PENISABLEHFull House10,000
2119/08 18:35SOT1234Full House20,000
2219/08 18:35DON1976Full House20,000
2319/08 18:35KIYYA068Full House10,000
2419/08 18:35BOSQUUFull House2,000
2519/08 18:35MISCKA16Full House2,000
2619/08 18:35TIKUSGOTFull House500
2719/08 18:35ASING89Full House1,000
2819/08 18:35UNYE0318Full House2,000
2919/08 18:35YDJQ5Z5BVYFull House2,000
3019/08 18:35SEKOYSFull House1,000
3119/08 18:35ADITJIE24Full House1,000
3219/08 18:35SAKITGIGI7Full House2,000
3319/08 18:35YULIA00Full House5,000
3419/08 18:35PERMANA1Full House1,000
3519/08 18:35BETIZFull House1,000
3619/08 18:35GAYUS24Full House5,000
3719/08 18:35VAT1G0NFull House2,000
3819/08 18:35PEKJOT666Full House2,000
3919/08 18:35JEIHAN19Full House2,000
4019/08 18:35SKYN3T83Full House2,000
4119/08 18:35KLARAP86Full House5,000
4219/08 18:35HARUSSHOKIFull House10,000
4319/08 18:35KRISTA999Full House1,000
4419/08 18:35NURAT26Full House5,000
4519/08 18:35GUINES88Full House10,000
4619/08 18:35CAYCAY17Full House1,000
4719/08 18:35F45FC512Full House10,000
4819/08 18:35JAMET_0Full House1,000
4919/08 18:35BULLS88KUFull House5,000
5019/08 18:3523KENAROKFull House5,000

Domino Multi Jackpot System

Ikutilah global jackpot yang tersedia di system kami, dengan system jackpot terbaru dan pertama di indonesia, anda dapat membeli jackpot dengan harga 100 rupiah saja dan menangkan hadiahnya hingga puluhan juta rupiah.

Jackpot bukanlah suatu keharusan untuk dibeli, namun kami memberikan suatu fitur tambahan untuk member tercinta dari www.ikanbuntal.com.

Terdapat tiga pilihan harga jackpot yang bisa anda beli yaitu :100,500 dan 1000 rupiah.

Hadiah dari Multi jackpot system www.ikanbuntal.com

  1. Murni Kecil x 50 harga jackpot yang anda beli.
      (contoh:anda membeli 1000 maka:1000 X 50 = 50.000)
  2. Murni Besar x 50 harga jackpot yang anda beli
      (contoh:anda membeli 1000 maka:1000 X 50 = 50.000)
  3. BALAK x 100 harga jackpot yang anda beli
      (contoh:anda membeli 1000 maka:1000 X 100 = 100.000)
  4. ENAM DEWA x 6666 harga jackpot yang anda beli
      (contoh:anda membeli 1000 maka:1000 X 6666 = 6.666.000)

Demikian adalah penjelasan dari Multi Jackpot www.ikanbuntal.com terima kasih dan selamat bermain salam hoki dari kami

Domino Jackpot Winner

TOP ENAM DEWA
No.TanggalNamaPriceWin
119/08 17:21JEVRI12murni enam6,666,000
219/08 16:44DWINA87murni enam6,666,000
319/08 16:23ARIQTBKmurni enam6,666,000
419/08 14:31COBADREmurni enam3,333,000
519/08 14:17EGA531murni enam3,333,000
TOP BALAK
No.TanggalNamaPriceWin
119/08 18:35YAKIN_BAE9balak50,000
219/08 18:34AZREL77balak50,000
319/08 18:32CB99A51Ebalak10,000
419/08 18:24HOAS88balak50,000
519/08 18:23Y3HDIBR7YUbalak50,000
LATEST JACKPOT
No.TanggalNamaPriceWin
119/08 18:35YAKIN_BAE9balak50,000
219/08 18:35ANDYLAW08murni kecil50,000
319/08 18:34M4TA001murni besar25,000
419/08 18:34AZREL77balak50,000
519/08 18:33RAGASA66murni besar50,000
619/08 18:32BX205murni besar50,000
719/08 18:32CB99A51Ebalak10,000
819/08 18:32DZAMDNL89murni besar25,000
919/08 18:31RIGUNADmurni besar50,000
1019/08 18:31VIRDAN55murni kecil5,000
1119/08 18:30JOKUNlucky992,500
1219/08 18:30FDS44WQmurni kecil50,000
1319/08 18:30TELUKKUMANmurni kecil25,000
1419/08 18:29CECE629Emurni besar5,000
1519/08 18:28SATGASMKmurni besar50,000
1619/08 18:26NAREZ88murni besar5,000
1719/08 18:26MNANG29JTmurni kecil5,000
1819/08 18:26Z4BISmurni kecil50,000
1919/08 18:26TEMPUR485murni besar50,000
2019/08 18:25ALAYYY22murni kecil5,000
2119/08 18:25GPV123murni besar50,000
2219/08 18:25POKPAK_22lucky9910,000
2319/08 18:25METAKImurni kecil50,000
2419/08 18:24HOAS88balak50,000
2519/08 18:24REKODEKA77murni besar5,000
2619/08 18:23Y3HDIBR7YUbalak50,000
2719/08 18:23T212BOM99murni besar5,000
2819/08 18:23SARIDIN12murni besar50,000
2919/08 18:22KUPU2Mmurni kecil25,000
3019/08 18:22PDL23balak10,000
3119/08 18:22OBOT44murni kecil25,000
3219/08 18:22LANCAH229murni kecil25,000
3319/08 18:21T988VEXbalak10,000
3419/08 18:21MULGANImurni besar5,000
3519/08 18:21M4TA001murni besar25,000
3619/08 18:21SEPTIANCANbalak50,000
3719/08 18:21PIN73Rmurni kecil50,000
3819/08 18:20IKI7murni besar50,000
3919/08 18:20BGGL8989murni besar50,000
4019/08 18:20LASDOP87balak100,000
4119/08 18:19OWEKACRUTbalak50,000
4219/08 18:19BGGL8989murni besar50,000
4319/08 18:19ZBLEND1990murni kecil50,000
4419/08 18:17MONROWAEbalak100,000
4519/08 18:16HNDJF46Y6Zmurni kecil50,000
4619/08 18:16IMROQQlucky992,500
4719/08 18:16TENTTARA99murni besar5,000
4819/08 18:15BM512TUmurni besar25,000
4919/08 18:14B33R00Wmurni kecil50,000
5019/08 18:14FARIHIN378murni besar5,000

Ceme Multi Jackpot System

Jackpot dilihat dari gabungan kartu pemain dengan kartu bandar. Bandar harus membeli jackpot sebanyak jumlah player yang sedang duduk. Sebagai contoh bila terdapat 3 pemain duduk bermain, dan bandar memutuskan untuk membeli jackpot Rp 1.000, maka pada periode tersebut bandar akan membeli jackpot sebanyak 3xRp1.000 = Rp3.000.

Jackpot bukanlah suatu keharusan untuk dibeli, namun kami memberikan suatu fitur tambahan untuk member tercinta dari www.ikanbuntal.com.

Terdapat tiga pilihan harga jackpot yang bisa anda beli yaitu :100,500 dan 1000 rupiah.

Hadiah dari Multi jackpot system www.ikanbuntal.com

  1. Murni Kecil x 50 harga jackpot yang anda beli.
      (contoh:anda membeli 1000 maka:1000 X 50 = 50.000)
  2. Murni Besar x 50 harga jackpot yang anda beli
      (contoh:anda membeli 1000 maka:1000 X 50 = 50.000)
  3. BALAK x 200 harga jackpot yang anda beli
      (contoh:anda membeli 1000 maka:1000 X 200 = 200.000)
  4. ENAM DEWA x 6666 harga jackpot yang anda beli
      (contoh:anda membeli 1000 maka:1000 X 6666 = 6.666.000)

Demikian adalah penjelasan dari Multi Jackpot www.ikanbuntal.com terima kasih dan selamat bermain salam hoki dari kami

Ceme Jackpot Winner

TOP ENAM DEWA
No.TanggalNamaPriceWin
119/08 18:29KENARY88murni enam666,600
219/08 18:29BERONDO88murni enam666,600
319/08 18:23KTIAN123murni enam6,666,000
419/08 18:15D9E6077Emurni enam666,600
519/08 17:39MASBAGONGmurni enam6,666,000
TOP BALAK
No.TanggalNamaPriceWin
119/08 18:35JJSUPERbalak200,000
219/08 18:35RZN521balak200,000
319/08 18:35QQUANGbalak200,000
419/08 18:34MAKPEL5balak200,000
519/08 18:34SINAKbalak200,000
LATEST JACKPOT
No.TanggalNamaPriceWin
119/08 18:35AXE_77murni kecil5,000
219/08 18:35JJSUPERbalak200,000
319/08 18:35RZN521balak200,000
419/08 18:35QQUANGbalak200,000
519/08 18:34MAKPEL5balak200,000
619/08 18:34SETANKUROmurni besar50,000
719/08 18:34JON52murni besar25,000
819/08 18:34SETANKUROmurni besar50,000
919/08 18:34TENRITATTAmurni kecil50,000
1019/08 18:34SAMAZKAmurni kecil5,000
1119/08 18:34BUDI029murni kecil25,000
1219/08 18:34SINAKbalak200,000
1319/08 18:34SINAKbalak200,000
1419/08 18:34PATS07balak200,000
1519/08 18:34WWUUNbalak200,000
1619/08 18:34FUJIKURAmurni besar50,000
1719/08 18:34SYAWHO6666murni besar50,000
1819/08 18:34ARISKY29murni besar25,000
1919/08 18:34DWBTNJUD68balak20,000
2019/08 18:34RONGGO53murni kecil5,000
2119/08 18:34DINO1509murni besar5,000
2219/08 18:34UNFORGIVmurni kecil50,000
2319/08 18:34UNA1725murni kecil5,000
2419/08 18:34MOMON134balak20,000
2519/08 18:34MAROS18balak100,000
2619/08 18:33YOFIRSmurni kecil50,000
2719/08 18:33JUPRI21murni kecil50,000
2819/08 18:33BIDIN0909balak100,000
2919/08 18:33MRD9murni kecil50,000
3019/08 18:33KDL1415murni kecil50,000
3119/08 18:33JPWARGA2murni kecil50,000
3219/08 18:33TAUFIK3999murni kecil50,000
3319/08 18:33PRAWIRA_85murni kecil25,000
3419/08 18:33SCHAAKmurni kecil5,000
3519/08 18:33SINAKmurni kecil50,000
3619/08 18:33EVICKmurni kecil50,000
3719/08 18:33YUSTO888murni besar50,000
3819/08 18:33ZORDAN97murni besar50,000
3919/08 18:33SITISAN09murni besar50,000
4019/08 18:33YRK88murni besar25,000
4119/08 18:33COICOI97balak100,000
4219/08 18:33NAGAN11murni kecil50,000
4319/08 18:33TPOS2017murni kecil25,000
4419/08 18:33S3LLOOmurni kecil25,000
4519/08 18:33C4N4RT75murni besar25,000
4619/08 18:33BARLI00murni besar50,000
4719/08 18:33SAORI1murni besar50,000
4819/08 18:32BLAPUK299murni kecil25,000
4919/08 18:32DIKASEEDEDmurni kecil50,000
5019/08 18:32HAUSJIImurni besar5,000